This is the latest recevied weather packets stored in our database for station/object DB0MAK-13. If no packets are shown the sender has not sent any weather packets the latest 10 day(s).
| Time | Temp. | Humidity | Pressure | Rain* | Wind** | Luminosity | Snow |
|---|---|---|---|---|---|---|---|
| 1778322245 | 13.89° C | 70% | 1017.4 hPa | 0 mm | - | - | - |
| 1778322068 | 13.89° C | 71% | 1017.4 hPa | 0 mm | - | - | - |
| 1778321645 | 13.33° C | 72% | 1017.5 hPa | 0 mm | - | - | - |
| 1778321045 | 13.33° C | 71% | 1017.5 hPa | 0 mm | - | - | - |
| 1778320811 | 13.33° C | 71% | 1017.6 hPa | 0 mm | - | - | - |
| 1778320445 | 13.33° C | 70% | 1017.5 hPa | 0 mm | - | - | - |
| 1778319968 | 13.89° C | 71% | 1017.5 hPa | 0 mm | - | - | - |
| 1778319845 | 13.89° C | 71% | 1017.6 hPa | 0 mm | - | - | - |
| 1778319548 | 13.89° C | 69% | 1017.5 hPa | 0 mm | - | - | - |
| 1778319245 | 13.89° C | 70% | 1017.5 hPa | 0 mm | - | - | - |
| 1778319128 | 13.89° C | 69% | 1017.5 hPa | 0 mm | - | - | - |
| 1778318710 | 13.33° C | 72% | 1017.6 hPa | 0 mm | - | - | - |
| 1778318645 | 13.33° C | 73% | 1017.5 hPa | 0 mm | - | - | - |
| 1778318045 | 13.33° C | 76% | 1017.5 hPa | 0 mm | - | - | - |
| 1778317868 | 12.78° C | 75% | 1017.6 hPa | 0 mm | - | - | - |
| 1778317445 | 12.78° C | 77% | 1017.6 hPa | 0 mm | - | - | - |
| 1778316845 | 12.22° C | 78% | 1017.7 hPa | 0 mm | - | - | - |
| 1778316608 | 12.22° C | 77% | 1017.7 hPa | 0 mm | - | - | - |
| 1778316245 | 12.22° C | 78% | 1017.7 hPa | 0 mm | - | - | - |
| 1778316190 | 12.22° C | 78% | 1017.7 hPa | 0 mm | - | - | - |
| 1778315768 | 11.67° C | 78% | 1017.7 hPa | 0 mm | - | - | - |
| 1778315645 | 12.22° C | 78% | 1017.7 hPa | 0 mm | - | - | - |
| 1778315348 | 12.22° C | 78% | 1017.7 hPa | 0 mm | - | - | - |
| 1778315045 | 11.67° C | 78% | 1017.7 hPa | 0 mm | - | - | - |
| 1778314930 | 11.67° C | 78% | 1017.7 hPa | 0 mm | - | - | - |
* Rain latest hour (hover to see other rain measurements)
** Current wind speed in m/s (hover to see current wind gust speed)